Regional Weather Roundup
Issued by NWS

Home | Current Version | Previous Version | Text Only | Print | Product List | Glossary Off
Versions: 1 2 3 4 5 6 7 8 9 10 11 12 13 14 15 16 17 18 19 20 21 22 23 24 25 26 27 28 29 30 31 32 33 34 35 36 37 38 39 40 41 42 43 44 45 46 47 48 49 50

107
ASUS43 KDTX 091301
RWRMI
MICHIGAN HOURLY REGIONAL WEATHER ROUNDUP
NATIONAL WEATHER SERVICE DETROIT/PONTIAC MI
800 AM EST FRI DEC 09 2016

NOTE: "FAIR" INDICATES FEW OR NO CLOUDS BELOW 12,000 FEET WITH NO
SIGNIFICANT WEATHER AND/OR OBSTRUCTION TO VISIBILITY.

MIZ047>049-052>055-059>063-066>070-074>076-081>083-091400-
SOUTHEAST LOWER MICHIGAN

CITY           SKY/WX    TMP DP  RH WIND       PRES   REMARKS
ADRIAN         CLOUDY    24  21  88 W7        30.37R WCI  16
ALMA           CLEAR     25  19  75 W14       30.33R WCI  14
ANN ARBOR      LGT SNOW  25  23  92 W8        30.34R FOG     WCI  16
BAD AXE        CLOUDY    26  19  75 NW5       30.28R WCI  20
CARO           CLOUDY    24  19  83 W7        30.30R WCI  16
DETROIT CITY   CLOUDY    27  23  85 W10       30.33R WCI  17
DETROIT        CLOUDY    27  23  85 W7        30.35R WCI  19
FLINT          CLEAR     25  19  78 W10       30.32R WCI  15
GROSSE ILE     CLOUDY    26  23  86 W7        30.34R WCI  19
HILLSDALE      LGT SNOW  23  19  86 W9        30.34R WCI  13
HOWELL         CLOUDY    26  22  83 W7        30.32R WCI  19

CITY           SKY/WX    TMP DP  RH WIND       PRES   REMARKS
JACKSON        CLOUDY    24  21  88 W7        30.34R WCI  16
LAMBERTVILLE   LGT SNOW  25  21  85 W7        30.37S WCI  17
LANSING        CLOUDY    26  20  77 W9        30.35R WCI  17
LAPEER         NOT AVBL
MASON          CLOUDY    26  24  91 W9        30.34R WCI  17
MONROE         LGT SNOW  25  23  93 W9        30.35S WCI  15
PONTIAC        PTCLDY    25  20  81 W10       30.29R WCI  15
PORT HOPE        N/A     28  17  63 NW13G23   30.26R WCI  17
PORT HURON     PTCLDY    25  21  86 W6        30.30R WCI  18
TRI CITIES     CLEAR     21  18  88 W10       30.32R WCI  10
MIDLAND        MOCLDY    23  16  74 W3        30.32R
TROY           CLOUDY    28  24  84 SW6       30.33R WCI  22
SAGINAW HB     PTCLDY    25  19  80 W8        30.31R WCI  16
$$
MIZ043>046-050>051-056>058-064>065-071>073-077>080-091400-
SOUTHWEST LOWER MICHIGAN

CITY           SKY/WX    TMP DP  RH WIND       PRES   REMARKS
BATTLE CREEK   LGT SNOW  25  24  96 SW5       30.36R FOG     WCI  19
BENTON HARBOR  CLOUDY    31  17  56 W14G21    30.41R WCI  21
BIG RAPIDS     CLOUDY    25  17  73 W7        30.31S WCI  17
COLDWATER      LGT SNOW  24  22  94 W5        30.37R WCI  18
FREMONT        CLOUDY    24  17  74 W7        30.35S WCI  16
HOLLAND        CLOUDY    30  19  63 W15G22    30.38R WCI  19
GRAND RAPIDS   CLOUDY    27  19  72 NW8       30.36R WCI  19
KALAMAZOO      LGT SNOW  27  24  89 W5        30.37R VSB 3/4 WCI  22
LUDINGTON      CLOUDY    26  14  60 NW9G18    30.36R WCI  17
MARSHALL       FLURRIES  25  24  95 SW5       30.35R WCI  19
MOUNT PLEASANT PTCLDY    23  18  79 W5        30.31R WCI  17
MUSKEGON       CLOUDY    29  16  58 NW13      30.38R WCI  19
SOUTH HAVEN    CLOUDY    30  18  61 NW8G17    30.39R WCI  23
$$
MIZ016>042-091400-
NORTHERN LOWER MICHIGAN

CITY           SKY/WX    TMP DP  RH WIND       PRES   REMARKS
ALPENA         CLOUDY    19  13  77 NW6       30.28R WCI  11
BEAVER ISLAND  CLOUDY    25  16  68 N6        30.30R WCI  18
BELLAIRE       CLOUDY    22  21  96 CALM      30.30R
CADILLAC       CLOUDY    22  19  85 W8        30.26S WCI  13
CHARLEVOIX     CLOUDY    28  15  59 NW15      30.31R WCI  16
FRANKFORT      LGT SNOW  27  20  75 NW14      30.33S WCI  16
GAYLORD        CLOUDY    20  15  81 CALM      30.24R
GRAYLING       FLURRIES  20  19  93 CALM      30.27R
HARBOR SPRINGS CLOUDY    22  17  80 CALM      30.28S
HOUGHTON LAKE  LGT SNOW  22  19  89 CALM      30.27R FOG
MANISTEE       FLURRIES  26  17  68 NW12      30.34R WCI  16
OSCODA         CLEAR     16  13  88 MISG      30.28S
PELLSTON       CLOUDY    22  14  71 NE5       30.29R WCI  16
ROGERS CITY    CLOUDY    24  15  67 N10       30.28S WCI  14
TRAVERSE CITY  CLOUDY    26  20  77 W8        30.30R WCI  18
$$
MIZ007>008-015-091400-
EASTERN UPPER MICHIGAN

CITY           SKY/WX    TMP DP  RH WIND       PRES   REMARKS
KINROSS        LGT SNOW  16  14  92 N3        30.29R FOG
MACKINAC ISLAN CLOUDY    21  15  80 N5        30.28R WCI  14
NEWBERRY       CLOUDY    18  17  96 W5        30.27S WCI  11
S. S. MARIE    CLOUDY    18   8  65 NE5       30.28R WCI  11
MUNISING         N/A     27  19  72 N12       30.31R WCI  17
$$
MIZ004>006-011>014-085-091400-
CENTRAL UPPER MICHIGAN

CITY           SKY/WX    TMP DP  RH WIND       PRES   REMARKS
MANISTIQUE     MOCLDY    17  16  98 NW7       30.31S WCI   7
MENOMINEE        N/A     19  10  68 NW6       30.39S WCI  11
SAWYER-GWINN   MOCLDY    14  12  92 W9        30.31R WCI   2
$$
MIZ001>003-009>011-084-091400-
WESTERN UPPER MICHIGAN

CITY           SKY/WX    TMP DP  RH WIND       PRES   REMARKS
IRON MOUNTAIN  CLOUDY    17   8  67 NW13      30.33S WCI   4
HOUGHTON       LGT SNOW  19  13  77 NW13      30.33S WCI   6
COPPER HARBOR    N/A     24  15  68 NE16      30.35R WCI  11
IRONWOOD       FLURRIES  16  10  77 W13       30.39S WCI   2
$$

ABBREVIATIONS USED IN REMARKS
   TC - TEMPERATURE IN CELSIUS
  WCI - WIND CHILL INDEX
   HX - HEAT INDEX
  VSB - VISIBILITY





USA.gov is the U.S. government's official web portal to all federal, state and local government web resources and services.